Flag for Brazil Weather past 2 weeks in Belo Horizonte, Minas Gerais, Brazil

Now
82 °F

Clear.


Feels Like: 81 °F
Forecast: N/A
Wind: No wind

Location: Belo Horizonte Airport

Current Time: Sep 2, 2014 at 8:53:44 PM

Latest Report: Sep 2, 2014 at 8:00 PM


Visibility: 10 mi

Pressure: 29.98 "Hg

Humidity: 26%

Dew point: 45 °F

Location of Belo HorizonteLocation

Historic Weather in Belo Horizonte — Graph

°F

Belo Horizonte temperature yesterday

Maximum temperature yesterday: 86 °F (at 11:00 AM)
Minimum temperature yesterday: 64 °F (at 4:00 AM)
Average temperature yesterday: 72 °F

Past Weeks' High & Low Weather Summary

 TemperatureHumidityPressure
High91 °F (Sep 2, 3:00 PM)88% (Aug 19, 2:00 AM)30.30 "Hg (Aug 19, 2:00 AM)
Low55 °F (Aug 26, 5:00 AM)13% (Aug 23, 5:00 PM)29.95 "Hg (Sep 2, 3:00 PM)
Average71 °F51%30.12 "Hg
* Reported Aug 18 7:00 PM — Sep 2 7:00 PM, Belo Horizonte, Weather by CustomWeather, © 2014

Note: Actual official high and low records may vary slightly from our data, if they occured in-between our weather recording intervals... More about our weather records

Advertising

Belo Horizonte weather history for previous 24 hours

 ConditionsComfort  
Time TempWeatherWind HumidityBarometerVisibility
7:00 PM
Sep 2
86 °FClear.3 mph22%29.98 "Hg10 mi
6:00 PM86 °FClear.3 mph24%29.98 "Hg10 mi
5:00 PM90 °FSunny.6 mph21%29.95 "Hg10 mi
4:00 PM91 °FPassing clouds.6 mph17%29.95 "HgN/A
3:00 PM91 °FPassing clouds.5 mph18%29.95 "HgN/A
2:00 PM90 °FPassing clouds.5 mph17%29.98 "HgN/A
1:00 PM90 °FSunny.3 mph22%30.01 "Hg10 mi
12:00 PM88 °FSunny.7 mph25%30.07 "Hg10 mi
11:00 AM84 °FSunny.5 mph27%30.09 "Hg10 mi
10:00 AM81 °FSunny.2 mph37%30.09 "Hg10 mi
9:00 AM75 °FSunny.3 mph47%30.09 "Hg10 mi
8:00 AM66 °FSunny.2 mph64%30.09 "Hg10 mi
7:00 AM63 °FSunny.2 mph73%30.09 "Hg10 mi
6:00 AM61 °FClear.3 mph77%30.07 "Hg10 mi
5:00 AM63 °FClear.3 mph73%30.04 "Hg10 mi
4:00 AM64 °FClear.3 mph68%30.01 "Hg10 mi
3:00 AM64 °FClear.2 mph68%30.04 "Hg10 mi
2:00 AM64 °FClear.3 mph73%30.04 "Hg10 mi
1:00 AM66 °FClear.2 mph68%30.04 "Hg10 mi
12:00 AM66 °FClear.2 mph68%30.04 "Hg10 mi
11:00 PM
Sep 1
68 °FClear.3 mph64%30.04 "Hg10 mi
10:00 PM68 °FClear.5 mph64%30.04 "Hg10 mi
9:00 PM68 °FClear.2 mph64%30.04 "Hg10 mi
8:00 PM68 °FClear.3 mph69%30.04 "Hg10 mi
Weather by CustomWeather, © 2014

See weather overviewHow to use our weather pages